CST,Max TemperatureF,Mean TemperatureF,Min TemperatureF,Max Dew PointF,MeanDew PointF,Min DewpointF,Max Humidity, Mean Humidity, Min Humidity, Max Sea Level PressureIn, Mean Sea Level PressureIn, Min Sea Level PressureIn, Max VisibilityMiles, Mean VisibilityMiles, Min VisibilityMiles, Max Wind SpeedMPH, Mean Wind SpeedMPH, Max Gust SpeedMPH,PrecipitationIn, CloudCover, Events, WindDirDegrees
2013-2-1,48,32,15,21,15,5,79,55,27,30.39,30.25,30.09,10,10,10,20,7,26,0.00,0,,178
2013-2-2,59,42,26,32,25,21,93,54,23,30.36,30.29,30.17,10,10,10,14,9,18,0.00,0,,273
2013-2-3,64,46,28,28,22,14,74,40,14,30.32,30.12,29.84,10,10,10,29,11,34,0.00,0,,182
2013-2-4,60,48,35,32,26,21,70,44,22,29.99,29.93,29.81,10,10,10,15,9,20,0.00,0,,349
2013-2-5,66,47,28,28,24,19,80,46,18,30.07,30.00,29.93,10,10,10,10,6,,0.00,0,,212
2013-2-6,64,50,35,54,44,28,94,74,52,30.02,29.89,29.77,10,9,0,25,12,34,0.00,4,Fog-Rain,172
2013-2-7,59,49,39,54,36,23,94,62,29,30.24,30.02,29.76,10,10,4,28,18,38,0.00,4,,4
2013-2-8,57,42,28,28,22,16,80,50,21,30.29,30.20,30.07,10,10,10,16,7,22,0.00,0,,168
2013-2-9,51,44,37,46,38,28,100,77,61,30.07,29.82,29.57,10,8,2,30,15,39,0.00,5,Rain-Thunderstorm,153
2013-2-10,53,42,32,41,22,18,76,45,26,30.10,29.81,29.58,10,10,10,26,14,33,0.00,0,,281
2013-2-11,50,36,21,23,20,18,93,56,30,30.24,30.15,30.09,10,10,10,10,5,,0.00,1,,53
2013-2-12,39,32,24,32,30,19,100,90,48,30.13,30.07,30.05,10,4,0,13,7,,0.19,7,Fog-Snow,5
2013-2-13,44,30,17,32,25,14,93,80,57,30.07,30.02,29.96,10,10,10,13,9,,0.00,0,,226
2013-2-14,51,40,28,36,30,23,87,73,50,30.32,30.12,30.02,10,10,10,20,10,25,0.00,3,Rain,324
2013-2-15,42,34,26,32,23,19,100,68,39,30.44,30.37,30.28,10,9,0,14,7,22,0.03,4,Fog-Snow,350
2013-2-16,62,42,21,32,26,19,100,67,20,30.40,30.21,30.04,10,8,0,21,5,29,0.00,2,Fog,229
2013-2-17,69,51,33,34,27,19,81,45,16,30.03,29.82,29.57,10,10,10,26,12,36,0.00,0,,196
2013-2-18,57,44,30,30,24,19,69,44,25,30.16,29.87,29.54,10,10,10,31,20,40,0.00,0,,310
2013-2-19,53,38,23,27,22,19,86,54,26,30.28,30.20,30.12,10,10,10,20,7,24,0.00,1,,154
2013-2-20,41,37,33,34,32,25,100,88,53,30.12,29.98,29.83,10,5,0,21,15,33,0.13,8,Fog-Rain-Snow-Thunderstorm,118
2013-2-21,33,24,14,32,24,10,100,90,79,30.00,29.79,29.62,10,6,0,18,12,25,0.43,6,Fog-Snow-Thunderstorm,356
2013-2-22,30,19,8,19,13,5,92,78,64,30.12,30.07,30.00,10,10,10,10,7,,0.00,0,,263
2013-2-23,41,28,15,32,25,12,93,82,70,30.07,29.94,29.81,10,10,7,20,10,,0.00,3,,194
2013-2-24,50,41,32,36,31,28,100,80,54,29.91,29.78,29.70,10,9,0,17,10,24,0.34,2,Snow-Thunderstorm,153
2013-2-25,33,32,32,32,31,30,100,96,93,29.84,29.79,29.72,5,2,0,28,17,36,0.18,8,Snow-Thunderstorm,352
2013-2-26,35,29,23,30,24,19,93,80,60,29.99,29.87,29.80,10,10,10,17,11,24,0.00,1,,303
2013-2-27,39,30,21,30,25,18,93,79,69,30.26,30.15,29.98,10,10,10,23,10,32,0.00,2,,308
2013-2-28,42,32,21,28,25,19,93,73,53,30.30,30.26,30.21,10,10,10,13,8,,0.00,0,,285